Location: Gorrie
(43.8742°N, 81.1087°W)
Time: 22:31:27
(UTC+00:00)

Cosmos 2360 Rocket - Pass Details

Date: 09 December 2025
Orbit: 835 x 842 km, 71.0° (Epoch: 21 January)

Event Time Altitude Azimuth Distance (km) Brightness Sun altitude
Exits shadow 11:11:18 - 340° (NNW) 2,576 4.4 -16.6°
Reaches altitude 10° 11:11:37 10° 341° (NNW) 2,457 4.3 -16.5°
Maximum altitude 11:17:12 63° 62° (ENE) 934 2.6 -15.6°
Drops below altitude 10° 11:22:45 10° 143° (SE) 2,439 5.4 -14.6°
Sets 11:25:12 0° 147° (SSE) 3,368 6.2 -14.2°
